IRIDIUM 26

Satellite information

Favourite Embed

Satellite Type and Status

PAYLOADIN ORBIT

Key statistics

Satellite IRIDIUM 26 at a glance.

Uptime

10242

Days in orbit

Revolutions

≈ 14.4

Per day

Orbit

LEO

Low Earth Orbit

Inclination

86.4

Latest

Satellite identification and parameters

Extended collection of information and parameters for IRIDIUM 26.

Object identification

Identified? True

Debris? False

Object name: IRIDIUM 26

International designator: 1997-043A

Object number (NORAD): 24903

Object ID (CCSDS): 24903

Country: UNITED STATES OF AMERICA (US)

Current information (Y/N): Y

RCS size: LARGE

Orbital parameters

Period: 100.195 minutes

Inclination: 86.3895 deg

SMA: 7145.91 km

Apoapsis: 769.269 km

Periapsis: 766.282 km

RAAN: 77.8117 deg

Eccentricy: 0.000209

Argument of periapsis: 94.064 deg

Mean anomaly: 266.0797 deg

Mean motion: 14.37197453 rev/day

Mean motion (dot): 0.00000776 rev/day2

B* drag term: 0.00025431634 1/REarth

Two-line elements (TLE)

Creation date: Sept. 3, 2025, 10:15 a.m.

Reference frame: TEME

Reference center: EARTH

Epoch: Sept. 3, 2025, 5:39 a.m. UTC

TLE line 0: 0 IRIDIUM 26

TLE line 1: 1 24903U 97043A 25246.23610285 .00000776 00000-0 25432-3 0 9996

TLE line 2: 2 24903 86.3895 77.8117 0002090 94.0640 266.0797 14.37197453467956

Live tracking on map

Real-time ground track for satellite IRIDIUM 26.

In-orbit conjunctions

A list of the most updated potential collisions computed for object IRIDIUM 26.

Target Orbit TCA Probability of collision Miss distance Type
NOAA 16 DEB SSO 2025-05-27 21:43:41 0.0001275176 875.0 (m) DEBRIS
CZ-6A DEB LEO 2025-03-23 22:31:33 0.0002573081 180.0 (m) DEBRIS
SL-8 DEB LEO 2024-10-27 04:26:33 0.01291655 32.0 (m) DEBRIS
NOAA 16 DEB SSO 2024-10-19 21:35:47 0.0001121922 16.0 (m) DEBRIS

Associated space launch

Iridium provides global mobile telecommunications services using a constellation of 66 low earth orbit satellites in a 86.4° inclined orbit. Although 77 satellites were originally envisioned for the system and spawned the name based on the 77th element in the periodic table, the system has been scaled back. Motorola's Satellite Communications Group designed and manufactured the Iridium satellites with Lockheed Martin providing the LM-700A spacecraft buses.

IRIDIUM 26 was lifted into orbit during the mission ‘Delta II | Iridium 22 to 26’, on board a Delta II space rocket.

The launch took place on Aug. 21, 1997, 12:38 a.m. from Space Launch Complex 2W.

For more information about the launch, click the button.

Launch to space Delta II | Iridium 22 to 26
Delta II | Iridium 22 to 26

Agency: N/A

Status: Launch Successful

Launch date: Aug. 21, 1997, 12:38 a.m. UTC

Rocket: Delta II

Launch pad: Space Launch Complex 2W

Location: Vandenberg SFB, CA, USA

...

Latest news about this satellite

There are no fresh news available about this satellite. Check back as we update our databases every day.


Newsletter sign-up

Weekly statistics, charts and insights to help you stay on top of the space industry.